Location: *
(58.7167°N, 26.1833°E)
Time: 00:12:38
(UTC+00:00)

Cosmos 1674 - Pass Details

Date: 25 August 2019
Orbit: 495 x 519 km, 82.5° (Epoch: 23 October)

Event Time Altitude Azimuth Distance (km) Brightness Sun altitude
Rises 20:30:17 0° 351° (N) 2,655 7.7 -17.3°
Reaches altitude 10° 20:32:40 10° 3° (N) 1,759 6.3 -17.5°
Maximum altitude 20:36:02 28° 64° (ENE) 992 4.1 -17.7°
Enters shadow 20:37:12 24° 95° (E) 1,109 4.1 -17.7°
